Weather History for Omaha Offutt, NE

Change the Weather History Date:

Sunday, March 10, 2013

  Actual Average Record
Temperature  
Mean Temperature 30 °F -  
Max Temperature 37 °F 41 °F 75 °F (2014)
Min Temperature 23 °F 23 °F 1 °F (1998)
Degree Days  
Heating Degree Days 34    
Moisture  
Dew Point 30 °F    
Average Humidity 97    
Maximum Humidity 100    
Minimum Humidity 84    
Precipitation  
Precipitation 0.20 in - - ()
Snow  
Snow 0.00 in - - ()
Snow Depth 4.00 in    
Sea Level Pressure  
Sea Level Pressure 29.83 in    
Wind  
Wind Speed 15 mph (NNW)    
Max Wind Speed 24 mph    
Max Gust Speed 34 mph    
Visibility 4 miles    
Events Fog , Rain , Snow    
Averages and records for this station are not official NWS values.
T = Trace of Precipitation, MM = Missing Value Source: NWS Daily Summary

Daily Weather History Graph

Daily Weather History Graph

Search for Another Location

Airport:

Trip Planner

Search our weather history database for the weather conditions in past years. The results will help you decide how hot, cold, wet, or windy it might be!

Date:

Astronomy

Mar. 10, 2013 Rise Set
Actual Time 7:43 AM CDT 7:25 PM CDT
Civil Twilight 7:15 AM CDT 7:52 PM CDT
Nautical Twilight 6:43 AM CDT 8:24 PM CDT
Astronomical Twilight 6:11 AM CDT 8:56 PM CDT
Moon 6:44 AM CDT (3/10) 6:34 PM CDT (3/10)
Length of Visible Light 12h 36m
Length of Day
11h 42m
Waning Crescent, 2% of the Moon is Illuminated
Mar 10
Waning Crescent
Mar 11
New
Mar 19
First Quarter
Mar 27
Full
Apr 2
Last Quarter

Hourly Weather History & Observations

Time (CDT) Temp. Windchill Dew Point Humidity Pressure Visibility Wind Dir Wind Speed Gust Speed Precip Events Conditions
12:00 AM 37.4 °F 28.5 °F 37.4 °F 100% 29.68 in 10.0 mi North 15.0 mph 27.6 mph N/A   Overcast
12:14 AM 37.4 °F 29.3 °F 35.6 °F 93% 29.70 in 10.0 mi North 12.7 mph 27.6 mph N/A   Overcast
12:55 AM 36.9 °F 30.1 °F 36.7 °F 99% 29.70 in 10.0 mi North 9.2 mph - 0.00 in   Overcast
1:10 AM 37.4 °F 28.9 °F 37.4 °F 100% 29.69 in 10.0 mi North 13.8 mph 21.9 mph N/A Rain Light Rain
1:12 AM 37.4 °F 29.3 °F 37.4 °F 100% 29.69 in 10.0 mi NNW 12.7 mph 21.9 mph N/A Rain Light Rain
1:28 AM 37.4 °F 29.8 °F 35.6 °F 93% 29.73 in 10.0 mi NW 11.5 mph 19.6 mph N/A Rain Light Rain
1:43 AM 35.6 °F 27.1 °F 35.6 °F 100% 29.73 in 10.0 mi NNW 12.7 mph - N/A Rain Rain
1:50 AM 35.6 °F 26.6 °F 35.6 °F 100% 29.73 in 8.0 mi NNW 13.8 mph 19.6 mph N/A Rain Heavy Rain
1:55 AM 36.1 °F 28.7 °F 35.8 °F 99% 29.73 in 6.0 mi NNW 10.4 mph 19.6 mph 0.04 in Rain Light Rain
3:55 AM 34.7 °F 25.9 °F 34.3 °F 99% 29.74 in 7.0 mi North 12.7 mph 18.4 mph 0.02 in Rain Heavy Rain
4:28 AM 33.8 °F 24.8 °F 33.8 °F 100% 29.72 in 10.0 mi NNW 12.7 mph 23.0 mph N/A Rain Light Rain
4:43 AM 33.8 °F 23.2 °F 33.8 °F 100% 29.73 in 10.0 mi NNW 17.3 mph 26.5 mph N/A Rain Light Rain
4:55 AM 33.6 °F 23.3 °F 33.4 °F 99% 29.73 in 10.0 mi NNW 16.1 mph 25.3 mph 0.05 in Rain Light Rain
5:02 AM 33.8 °F 23.9 °F 33.8 °F 100% 29.74 in 10.0 mi North 15.0 mph 28.8 mph N/A   Overcast
5:18 AM 33.8 °F 24.8 °F 33.8 °F 100% 29.73 in 10.0 mi NNW 12.7 mph 25.3 mph N/A   Overcast
5:32 AM 33.8 °F 24.8 °F 33.8 °F 100% 29.74 in 9.0 mi NNW 12.7 mph 25.3 mph N/A   Overcast
5:45 AM 33.8 °F 24.8 °F 33.8 °F 100% 29.75 in 10.0 mi NNW 12.7 mph 21.9 mph N/A Rain Light Rain
5:54 AM 32.0 °F 21.2 °F 32.0 °F 100% 29.73 in 10.0 mi North 16.1 mph 25.3 mph N/A   Overcast
5:55 AM 33.1 °F 23.0 °F 32.9 °F 99% 29.75 in 10.0 mi North 15.0 mph 25.3 mph 0.00 in Rain Light Rain
6:10 AM 33.8 °F 23.5 °F 32.0 °F 93% 29.78 in 10.0 mi North 16.1 mph 28.8 mph N/A Rain Light Rain
6:31 AM 32.0 °F 20.5 °F 32.0 °F 100% 29.80 in 10.0 mi North 18.4 mph 27.6 mph N/A Rain Light Freezing Rain
6:33 AM 32.0 °F 20.1 °F 32.0 °F 100% 29.80 in 10.0 mi NNW 19.6 mph 27.6 mph N/A Rain Light Freezing Rain
6:43 AM 32.0 °F 24.2 °F 32.0 °F 100% 29.80 in 10.0 mi NNW 9.2 mph 19.6 mph N/A Rain Light Rain
6:55 AM 32.4 °F 22.5 °F 32.2 °F 99% 29.79 in 10.0 mi NNW 13.8 mph 21.9 mph 0.00 in Rain Light Rain
7:38 AM 32.0 °F 22.1 °F 32.0 °F 100% 29.78 in 4.0 mi NNW 13.8 mph 26.5 mph N/A   Overcast
7:55 AM 31.5 °F 19.8 °F 31.3 °F 99% 29.80 in 5.0 mi NNW 18.4 mph 25.3 mph 0.01 in   Light Ice Pellets
8:33 AM 32.0 °F 22.5 °F 30.2 °F 93% 29.82 in 2.5 mi NNW 12.7 mph 23.0 mph N/A Snow Light Snow
8:38 AM 32.0 °F 21.2 °F 30.2 °F 93% 29.83 in 2.5 mi NNW 16.1 mph 19.6 mph N/A Snow Light Snow
8:55 AM 31.5 °F 21.8 °F 31.3 °F 99% 29.80 in 4.0 mi NNW 12.7 mph 21.9 mph 0.01 in Snow Light Snow
9:55 AM 30.7 °F 19.6 °F 29.7 °F 96% 29.81 in 7.0 mi NNW 16.1 mph 31.1 mph 0.00 in   Light Ice Pellets
10:55 AM 30.2 °F 20.2 °F 28.8 °F 94% 29.86 in 5.0 mi NNW 12.7 mph 20.7 mph 0.00 in   Light Ice Pellets
11:14 AM 30.2 °F 20.8 °F 28.4 °F 93% 29.86 in 2.5 mi NNW 11.5 mph 26.5 mph N/A Snow Light Snow
11:43 AM 30.2 °F 20.2 °F 28.4 °F 93% 29.87 in 1.8 mi NW 12.7 mph 27.6 mph N/A Snow Light Snow
11:55 AM 29.5 °F 16.8 °F 28.4 °F 96% 29.88 in 1.0 mi NNW 19.6 mph 28.8 mph 0.00 in Snow Light Snow
12:12 PM 30.2 °F 16.5 °F 28.4 °F 93% 29.88 in 0.8 mi NW 24.2 mph 31.1 mph N/A Snow Light Snow
12:16 PM 28.4 °F 17.0 °F 28.4 °F 100% 29.88 in 0.8 mi NW 15.0 mph 23.0 mph N/A Snow Light Snow
12:25 PM 28.4 °F 16.2 °F 28.4 °F 100% 29.88 in 0.5 mi NW 17.3 mph 26.5 mph N/A Fog , Snow Light Freezing Fog
12:29 PM 28.4 °F 16.6 °F 28.4 °F 100% 29.88 in 0.5 mi NNW 16.1 mph 26.5 mph N/A Fog , Snow Light Freezing Fog
12:34 PM 28.4 °F 15.8 °F 28.4 °F 100% 29.88 in 0.5 mi NW 18.4 mph 25.3 mph N/A Fog , Snow Light Freezing Fog
12:36 PM 28.4 °F 17.0 °F 28.4 °F 100% 29.88 in 0.5 mi NNW 15.0 mph 25.3 mph N/A Fog , Snow Light Freezing Fog
12:39 PM 28.4 °F 15.8 °F 28.4 °F 100% 29.88 in 0.2 mi NW 18.4 mph 27.6 mph N/A Snow Heavy Snow
12:55 PM 28.9 °F 18.2 °F 28.4 °F 98% 29.88 in 0.2 mi NW 13.8 mph 25.3 mph 0.00 in Snow Heavy Snow
1:10 PM 28.4 °F 14.7 °F 28.4 °F 100% 29.88 in 0.5 mi NNW 21.9 mph 28.8 mph N/A Snow Snow
1:15 PM 28.4 °F 16.6 °F 28.4 °F 100% 29.88 in 0.5 mi NNW 16.1 mph 23.0 mph N/A Snow Snow
1:28 PM 28.4 °F 17.5 °F 28.4 °F 100% 29.88 in 0.5 mi NNW 13.8 mph 23.0 mph N/A Snow Light Snow
1:40 PM 28.4 °F 17.5 °F 28.4 °F 100% 29.87 in 0.8 mi NW 13.8 mph 28.8 mph N/A Snow Light Snow
1:55 PM 28.9 °F 16.5 °F 28.4 °F 98% 29.82 in 0.8 mi NW 18.4 mph 21.9 mph 0.01 in Snow Snow
2:00 PM 28.4 °F 15.1 °F 28.4 °F 100% 29.86 in 0.8 mi NW 20.7 mph 27.6 mph N/A Snow Light Snow
2:07 PM 28.4 °F 17.5 °F 28.4 °F 100% 29.86 in 0.5 mi NW 13.8 mph 20.7 mph N/A Snow Snow
2:25 PM 28.4 °F 17.0 °F 28.4 °F 100% 29.86 in 0.5 mi NW 15.0 mph 31.1 mph N/A Snow Snow
2:55 PM 28.4 °F 16.2 °F 27.5 °F 96% 29.85 in 0.2 mi NW 17.3 mph 34.5 mph 0.00 in Snow Heavy Snow
3:01 PM 28.4 °F 17.5 °F 28.4 °F 100% 29.85 in 0.5 mi NW 13.8 mph 34.5 mph N/A Fog , Snow Light Freezing Fog
3:55 PM 28.2 °F 16.3 °F 27.0 °F 95% 29.87 in 0.5 mi NW 16.1 mph 26.5 mph 0.02 in Snow Snow
4:15 PM 28.4 °F 16.2 °F 26.6 °F 93% 29.88 in 0.8 mi NW 17.3 mph 25.3 mph N/A Snow Light Snow
4:23 PM 28.4 °F 16.6 °F 26.6 °F 93% 29.88 in 1.0 mi NW 16.1 mph 27.6 mph N/A Snow Light Snow
4:55 PM 27.9 °F 15.9 °F 26.2 °F 94% 29.89 in 0.8 mi NW 16.1 mph 24.2 mph 0.00 in Snow Light Snow
5:55 PM 27.0 °F 14.3 °F 25.2 °F 93% 29.91 in 0.8 mi NW 17.3 mph 28.8 mph 0.03 in Snow Light Snow
6:55 PM 26.6 °F 14.3 °F 24.8 °F 93% 29.92 in 0.5 mi WNW 16.1 mph 23.0 mph 0.01 in Snow Light Snow
7:55 PM 26.4 °F 13.2 °F 24.4 °F 92% 29.93 in 0.8 mi NW 18.4 mph - 0.00 in Snow Light Snow
8:19 PM 26.6 °F 13.8 °F 24.8 °F 93% 29.94 in 0.8 mi NW 17.3 mph 27.6 mph N/A Snow Light Snow
8:55 PM 26.6 °F 13.4 °F 24.4 °F 92% 29.94 in 0.8 mi NW 18.4 mph 27.6 mph 0.00 in Snow Light Snow
9:53 PM 26.6 °F 14.3 °F 24.8 °F 93% 29.95 in 0.8 mi NW 16.1 mph 26.5 mph N/A Snow Light Snow
9:55 PM 26.6 °F 15.2 °F 24.1 °F 90% 29.95 in 0.8 mi NW 13.8 mph 26.5 mph 0.00 in Snow Light Snow
10:55 PM 26.1 °F 13.1 °F 21.7 °F 84% 29.96 in 0.8 mi NW 17.3 mph 24.2 mph 0.00 in Snow Light Snow
11:10 PM 24.8 °F 11.1 °F 21.2 °F 86% 29.96 in 1.0 mi NW 18.4 mph 26.5 mph N/A Snow Blowing Snow
11:19 PM 24.8 °F 10.3 °F 21.2 °F 86% 29.96 in 0.8 mi NW 20.7 mph 31.1 mph N/A Snow Light Snow
11:55 PM 24.1 °F 9.4 °F 22.1 °F 92% 29.96 in 0.8 mi NW 20.7 mph 24.2 mph 0.00 in Snow Light Snow
12:56 AM 23.7 °F 10.5 °F 20.7 °F 88% 29.95 in 0.8 mi WNW 16.1 mph - 0.00 in Snow Light Snow